Location: Leiter
(44.7178°N, 106.2687°W)
Time: 19:33:58
(UTC+00:00)

FO-29 - Visible Passes

Search period start: 26 June 2022 00:00
Search period end: 06 July 2022 00:00
Orbit: 801 x 1320 km, 98.5° (Epoch: 26 June)

Date Brightness Start Highest point End Pass type
(mag) Time Alt. Az. Time Alt. Az. Time Alt. Az.
30 Jun 12.9 03:49:14 10° W 03:50:41 11° W 03:52:08 10° WNW visible
02 Jul 12.8 03:43:06 10° W 03:45:36 12° W 03:48:07 10° WNW visible
04 Jul 12.7 03:37:21 10° WSW 03:40:31 13° W 03:43:44 10° WNW visible
